Location: Rounton
(54.4000°N, 1.3500°W)
Time: 17:47:44
(UTC+01:00)

S-56A Canister/Altair - Pass Details

Date: 08 September 2024
Orbit: 636 x 2487 km, 38.9° (Epoch: 06 October)

Event Time Altitude Azimuth Distance (km) Brightness Sun altitude
Rises 05:03:57 0° 269° (W) 5,582 - -12.1°
Reaches altitude 10° 05:12:32 10° 237° (WSW) 4,961 - -11.0°
Exits shadow 05:14:14 11° 230° (SW) 4,967 11.0 -10.8°
Maximum altitude 05:14:52 11° 227° (SW) 4,980 11.0 -10.7°
Drops below altitude 10° 05:17:15 10° 218° (SW) 5,082 11.2 -10.4°
Sets 05:26:49 0° 187° (S) 6,136 11.8 -9.1°
